Location: Chassagnes
(44.4047°N, 4.1657°E)
Time: 12:44:43
(UTC+00:00)

Cosmos 1300 - Pass Details

Date: 27 October 2020
Orbit: 511 x 513 km, 82.5° (Epoch: 23 November)

Event Time Altitude Azimuth Distance (km) Brightness Sun altitude
Rises 17:35:51 0° 190° (S) 2,615 6.5 -10.7°
Reaches altitude 10° 17:37:58 10° 191° (SSW) 1,733 5.6 -11.0°
Maximum altitude 17:41:46 79° 278° (W) 529 2.8 -11.7°
Drops below altitude 10° 17:45:37 10° 6° (N) 1,749 5.3 -12.4°
Sets 17:47:45 0° 8° (N) 2,640 6.2 -12.8°
